THOR ABLESTAR DEB, 337

Orbit data source: Space-Track

THOR ABLESTAR DEB, 337 is space debris in LEO originally from a launch on Thu, 29 Jun 1961 UTC launched from the Air Force Eastern Test Range (AFETR). Debris objects in space refer to the collection of defunct objects orbiting the Earth. Examples of debris include non-operational satellites, rocket bodies, and fragments generated from explosions, collisions, or faulty payload assembly.

Loading next visibility...
Identifier
337, 1961-015DP
Orbit
LEO
Country
Flag of USUS
Related business
Manufacturer
Unknown
Mission
Spacecraft
Bus & Motor
Unknown
Mass
Unknown
Launch date (UTC)
1961-06-29 (64 years ago)
Launch vehicle
Unknown
Launch site
Air Force Eastern Test Range (AFETR)
Object type
Payload
Rocket body
Debris
Shape & HBR
Unknown shape, 0.1 m
Radar Cross Section
Small (<0.1 m²)

Expand to show TLE details & history
Last TLE update: 6 hours ago

TLE from 6 hours ago
0 THOR ABLESTAR DEB
1 00337U 61015DP  25288.59759365  .00000542  00000-0  60940-3 0  9993
2 00337  67.0068 140.0769 0096395  75.7919 285.3838 13.76195698211128
Epoch: 2025-10-15T14:20Z
TLE epoch observation values (Epoch: 2025-10-15T14:20:32.091Z)
Latitude
-0.00008°
Longitude
-99.42623°
Altitude
961.314 km
Speed
7.381 km/s
True Right ascension
09h 20m 18s
True Declination
0° 00' 00"
Sunlit
Object was in daylight at epoch
Visualization orbit readout
Latitude
Unknown
Longitude
Unknown
Altitude
Unknown
Speed
Unknown
Apparent Right ascension
Unknown
Apparent Declination
Unknown
Sunlit
N/A
Visualization observer readout
Local Sidereal Time
14:29:05
Azimuth
Unknown
Elevation
Unknown
Doppler factor
Unknown
Orbital elements
Apogee altitude
1,046.681 km
Perigee altitude
904.904 km
Semi-major axis
7,353.929 km
Eccentricity
0.00964
Inclination
67.0068°
RAAN
140.0769°
Arg. of periapsis
75.7919°
True anomaly
284.31542°
Mean anomaly
285.3838°
Eccentric anomaly
284.84994°
Mean motion
3.44163 °/min
Orbital period
104.6 mins
BSTAR
0.0006094

Documentation

Showing up to 5 results
|